Regional Weather Roundup
Issued by NWS

Home | Current Version | Previous Version | Text Only | Print | Product List | Glossary On
Versions: 1 2 3 4 5 6 7 8 9 10 11 12 13 14 15 16 17 18 19 20 21 22 23 24 25 26 27 28 29 30 31 32 33 34 35 36 37 38 39 40 41 42 43 44 45 46 47 48 49 50
000
ASUS43 KOAX 240010
RWRNE

WEATHER ROUNDUP FOR NEBRASKA
NATIONAL WEATHER SERVICE OMAHA NE
600 PM CST THU NOV 23 2017

NOTES: SATELLITE DATA IS BEING USED TO AUGMENT CLOUD COVER ABOVE
       12000 FEET.
       "FAIR" INDICATES FEW OR NO CLOUDS BELOW 12,000 FEET WITH NO
       SIGNIFICANT WEATHER AND/OR OBSTRUCTIONS TO VISIBILITY.


NEZ001>004-019>022-054>056-240100-
NEBRASKA PANHANDLE

CITY           SKY/WX    TMP DP  RH WIND       PRES   REMARKS
SCOTTSBLUFF    CLEAR     57  36  45 W9        29.87F
6HR MIN TEMP:  57; 6HR MAX TEMP:  73;

ALLIANCE       CLEAR     52  36  54 W3        29.85F
6HR MIN TEMP:  48; 6HR MAX TEMP:  71;

CHADRON        CLOUDY    60  35  39 W7        29.79S
6HR MIN TEMP:  59; 6HR MAX TEMP:  75;

GORDON         FAIR      56  36  47 W3        29.78F
6HR MIN TEMP:  56; 6HR MAX TEMP:  73;

KIMBALL        CLOUDY    56  30  36 SW10      29.95F
SIDNEY         CLOUDY    61  32  33 W14       29.91F
6HR MIN TEMP:  56; 6HR MAX TEMP:  73;

$$

NEZ057>060-069>072-079>082-240100-
SOUTHWEST NEBRASKA

CITY           SKY/WX    TMP DP  RH WIND       PRES   REMARKS
NORTH PLATTE   CLOUDY    52  40  63 S3        29.85F
6HR MIN TEMP:  52; 6HR MAX TEMP:  73;

IMPERIAL       CLOUDY    58  35  42 S7        29.88F
6HR MIN TEMP:  58; 6HR MAX TEMP:  74;

LEXINGTON      CLOUDY    57  40  54 S7        29.85F
MCCOOK         CLOUDY    60  40  47 S12       29.87F
6HR MIN TEMP:  60; 6HR MAX TEMP:  72;

OGALLALA       CLOUDY    60  38  44 CALM      29.85F
$$

NEZ005>010-023>029-035>040-094-240100-
NORTH CENTRAL NEBRASKA

CITY           SKY/WX    TMP DP  RH WIND       PRES   REMARKS
VALENTINE      PTCLDY    54  37  52 SW9       29.75F
6HR MIN TEMP:  54; 6HR MAX TEMP:  76;

AINSWORTH      CLOUDY    60  40  47 SW8       29.78S
BROKEN BOW     CLOUDY    60  42  51 SW5       29.82F
6HR MIN TEMP:  59; 6HR MAX TEMP:  73;

O`NEILL        CLOUDY    60  43  53 S5        29.77F
ORD            PTCLDY    59  40  49 SW5       29.80F
6HR MIN TEMP:  59; 6HR MAX TEMP:  73;

THEDFORD       PTCLDY    60  39  45 S8        29.81F
$$

NEZ041-046>049-061>064-073>077-083>087-240100-
SOUTH CENTRAL NEBRASKA

CITY           SKY/WX    TMP DP  RH WIND       PRES   REMARKS
GRAND ISLAND   CLOUDY    60  41  49 S9        29.84F
6HR MIN TEMP:  60; 6HR MAX TEMP:  72;

AURORA         CLOUDY    60  39  45 SW10      29.84F
HASTINGS       CLOUDY    61  39  44 S8        29.86F
6HR MIN TEMP:  61; 6HR MAX TEMP:  71;

HEBRON         CLOUDY    61  40  46 SW10      29.88F
HOLDREGE       CLOUDY    57  41  56 SW6       29.86F
KEARNEY        CLOUDY    59  41  51 SW7       29.86F
YORK           CLOUDY    59  39  47 SW9       29.85S
$$

NEZ011>018-030>034-042>045-240100-
NORTHEAST NEBRASKA

CITY           SKY/WX    TMP DP  RH WIND       PRES   REMARKS
NORFOLK        CLOUDY    61  42  49 S12       29.78F
6HR MIN TEMP:  60; 6HR MAX TEMP:  72;

ALBION         CLOUDY    60  41  49 CALM      29.81S
BLAIR          CLOUDY    53  38  56 S7        29.84F
COLUMBUS       CLOUDY    59  42  53 S7        29.82F
FREMONT        CLEAR     55  39  54 SE8       29.83F
TEKAMAH        CLEAR     46  33  60 S8        29.83S
6HR MIN TEMP:  46; 6HR MAX TEMP:  63;

WAYNE          PTCLDY    55  38  52 S5        29.79S
$$

NEZ050>053-065>068-078-088>093-240100-
SOUTHEAST NEBRASKA

CITY           SKY/WX    TMP DP  RH WIND       PRES   REMARKS
LINCOLN        CLEAR     53  40  61 S8        29.86S
6HR MIN TEMP:  53; 6HR MAX TEMP:  71;

OMAHA EPPLEY   CLOUDY    51  37  58 S10       29.85F
6HR MIN TEMP:  50; 6HR MAX TEMP:  62;

BEATRICE       CLEAR     59  41  51 S8        29.88R
FALLS CITY     CLEAR     57  38  48 S7        29.89S
6HR MIN TEMP:  55; 6HR MAX TEMP:  66;

NEBRASKA CITY  CLOUDY    51  39  61 S8        29.88S
PLATTSMOUTH    CLOUDY    54  39  56 SE8       29.86F
$$

NEZ044-045-051>053-067-240100-
OMAHA AREA

CITY           SKY/WX    TMP DP  RH WIND       PRES   REMARKS
OMAHA EPPLEY   CLOUDY    51  37  58 S10       29.85F
6HR MIN TEMP:  50; 6HR MAX TEMP:  62;

BLAIR          CLOUDY    53  38  56 S7        29.84F
FREMONT        CLEAR     55  39  54 SE8       29.83F
MILLARD        CLOUDY    57  39  51 S6        29.85S
OFFUTT AFB     CLEAR     47  36  65 SE6       29.85F
PLATTSMOUTH    CLOUDY    54  39  56 SE8       29.86F
WAHOO          FAIR      53  38  56 SE8       29.83F
$$



USA.gov is the U.S. government's official web portal to all federal, state and local government web resources and services.